Location: Unspecified
(51.6250°N, 0.8230°E)
Time: 17:24:07
(UTC+00:00)

Intercosmos 25 - Visible Passes

Search period start: 14 December 2018 00:00
Search period end: 24 December 2018 00:00
Orbit: 439 x 2878 km, 82.6° (Epoch: 14 December)

Date Brightness Start Highest point End Pass type
(mag) Time Alt. Az. Time Alt. Az. Time Alt. Az.
18 Dec 7.3 03:07:22 10° N 03:07:22 10° N 03:07:25 10° N visible
19 Dec 7.3 03:02:03 11° N 03:02:03 11° N 03:02:24 10° N visible
19 Dec 7.5 07:09:06 10° NNE 07:10:24 10° NNE 07:11:46 10° NE visible
20 Dec 7.6 00:57:11 10° NNE 00:57:11 10° NNE 00:57:11 10° NNE visible
20 Dec 7.3 02:56:44 11° N 02:56:44 11° N 02:57:24 10° N visible
20 Dec 7.5 07:02:51 10° NNE 07:05:15 11° NNE 07:07:51 10° NE visible
21 Dec 7.6 00:51:53 11° N 00:51:53 11° N 00:52:07 10° N visible
21 Dec 7.3 02:51:26 12° N 02:51:26 12° N 02:52:25 10° N visible
21 Dec 7.5 06:56:59 10° N 07:00:06 11° NNE 07:03:35 10° NE visible
22 Dec 7.6 00:46:34 12° N 00:46:34 12° N 00:47:03 10° N visible
22 Dec 7.3 02:46:07 13° N 02:46:07 13° N 02:47:25 10° N visible
22 Dec 7.6 06:51:15 10° N 06:54:59 12° NNE 06:59:10 10° NE visible
23 Dec 7.6 00:41:16 12° N 00:41:16 12° N 00:42:00 10° N visible
23 Dec 7.4 02:40:49 14° N 02:40:49 14° N 02:42:27 10° N visible
23 Dec 7.6 06:45:38 10° N 06:49:52 12° NNE 06:54:41 10° NE visible
